• In Belarus
  • List of Countries
  • For 7 days
  • Water Temperature
  • Satellite Maps
  • Weather Map
  • Weather Widgets
  • user-avatar
    Login

    Hourly Weather Igls

    Today, 18 October, Thursday

    Time Temperature Precipitation Wind Pressure Humidity
    00:00 +10°C° 0 mm 1 mps 685 mmHg 84%
    01:00 +10°C° 0 mm 1 mps 685 mmHg 82%
    02:00 +10°C° 0 mm 1 mps 685 mmHg 83%
    03:00 +10°C° 0 mm 1 mps 685 mmHg 83%
    04:00 +9°C° 0 mm 1 mps 685 mmHg 83%
    05:00 +9°C° 0 mm 1 mps 685 mmHg 83%
    06:00 +9°C° 0 mm 1 mps 685 mmHg 83%
    07:00 +9°C° 0 mm 1 mps 685 mmHg 82%
    08:00 +12°C° 0 mm 1 mps 685 mmHg 74%
    09:00 +15°C° 0 mm 1 mps 686 mmHg 65%
    10:00 +18°C° 0 mm 1 mps 686 mmHg 56%
    11:00 +19°C° 0 mm 1 mps 686 mmHg 54%
    12:00 +19°C° 0 mm 1 mps 686 mmHg 52%
    13:00 +20°C° 0 mm 1 mps 686 mmHg 51%
    14:00 +19°C° 0 mm 1 mps 686 mmHg 55%
    15:00 +19°C° 0 mm 1 mps 686 mmHg 60%
    16:00 +17°C° 0 mm 2 mps 685 mmHg 65%
    17:00 +15°C° 0 mm 1 mps 685 mmHg 74%
    18:00 +13°C° 0 mm 1 mps 685 mmHg 84%
    19:00 +11°C° 0 mm 1 mps 685 mmHg 93%
    20:00 +10°C° 0 mm 1 mps 685 mmHg 94%
    21:00 +10°C° 0 mm 1 mps 686 mmHg 94%
    22:00 +10°C° 0 mm 1 mps 686 mmHg 95%
    23:00 +10°C° 0 mm 1 mps 686 mmHg 95%

    Tomorrow, 19 October, Friday

    Time Temperature Precipitation Wind Pressure Humidity
    00:00 +10°C° 0 mm 1 mps 686 mmHg 95%
    01:00 +9°C° 0 mm 1 mps 686 mmHg 95%
    02:00 +9°C° 0 mm 1 mps 686 mmHg 94%
    03:00 +9°C° 0 mm 1 mps 686 mmHg 93%
    04:00 +9°C° 0 mm 1 mps 686 mmHg 92%
    05:00 +9°C° 0 mm 1 mps 686 mmHg 92%
    06:00 +9°C° 0 mm 1 mps 686 mmHg 91%
    07:00 +9°C° 0 mm 1 mps 686 mmHg 90%
    08:00 +11°C° 0 mm 1 mps 687 mmHg 79%
    09:00 +14°C° 0 mm 1 mps 687 mmHg 67%
    10:00 +18°C° 0 mm 1 mps 688 mmHg 56%
    11:00 +19°C° 0 mm 1 mps 688 mmHg 52%
    12:00 +19°C° 0 mm 1 mps 688 mmHg 47%
    13:00 +20°C° 0 mm 1 mps 688 mmHg 43%
    14:00 +20°C° 0 mm 1 mps 688 mmHg 49%
    15:00 +18°C° 0 mm 2 mps 688 mmHg 55%
    16:00 +17°C° 0 mm 2 mps 688 mmHg 61%
    17:00 +15°C° 0 mm 1 mps 688 mmHg 71%
    18:00 +12°C° 0 mm 1 mps 688 mmHg 81%
    19:00 +10°C° 0 mm 1 mps 688 mmHg 90%
    20:00 +10°C° 0 mm 1 mps 688 mmHg 90%
    21:00 +9°C° 0 mm 1 mps 688 mmHg 91%
    22:00 +9°C° 0 mm 1 mps 689 mmHg 91%
    23:00 +9°C° 0 mm 1 mps 689 mmHg 90%

    Day after tomorrow, 20 October, Saturday

    Time Temperature Precipitation Wind Pressure Humidity
    00:00 +9°C° 0 mm 1 mps 689 mmHg 89%
    01:00 +9°C° 0 mm 1 mps 689 mmHg 88%
    02:00 +8°C° 0 mm 1 mps 689 mmHg 87%
    03:00 +8°C° 0 mm 1 mps 689 mmHg 86%
    04:00 +8°C° 0 mm 1 mps 689 mmHg 84%
    05:00 +8°C° 0 mm 1 mps 689 mmHg 83%
    06:00 +8°C° 0 mm 1 mps 690 mmHg 81%
    07:00 +8°C° 0 mm 1 mps 690 mmHg 80%
    08:00 +11°C° 0 mm 1 mps 690 mmHg 69%
    09:00 +13°C° 0 mm 1 mps 691 mmHg 58%
    10:00 +16°C° 0 mm 1 mps 692 mmHg 48%
    11:00 +17°C° 0 mm 2 mps 692 mmHg 46%
    12:00 +17°C° 0 mm 2 mps 692 mmHg 44%
    13:00 +18°C° 0 mm 2 mps 692 mmHg 42%
    14:00 +17°C° 0 mm 2 mps 692 mmHg 48%
    15:00 +16°C° 0 mm 2 mps 692 mmHg 55%
    16:00 +16°C° 0 mm 2 mps 691 mmHg 61%
    17:00 +14°C° 0 mm 2 mps 691 mmHg 72%
    18:00 +12°C° 0 mm 1 mps 691 mmHg 82%
    19:00 +10°C° 0 mm 1 mps 691 mmHg 93%
    20:00 +9°C° 0 mm 1 mps 691 mmHg 93%
    21:00 +9°C° 0 mm 1 mps 692 mmHg 93%
    22:00 +8°C° 0 mm 1 mps 692 mmHg 93%
    23:00 +8°C° 0 mm 1 mps 692 mmHg 90%

    21 October, Sunday

    Time Temperature Precipitation Wind Pressure Humidity
    00:00 +7°C° 0 mm 1 mps 692 mmHg 87%
    01:00 +7°C° 0 mm 1 mps 692 mmHg 84%
    02:00 +7°C° 0 mm 1 mps 691 mmHg 79%
    03:00 +7°C° 0 mm 1 mps 691 mmHg 74%
    04:00 +6°C° 0 mm 1 mps 691 mmHg 69%
    05:00 +6°C° 0 mm 1 mps 691 mmHg 64%
    06:00 +6°C° 0 mm 1 mps 691 mmHg 59%
    07:00 +6°C° 0 mm 1 mps 692 mmHg 54%
    08:00 +10°C° 0 mm 1 mps 692 mmHg 46%
    09:00 +13°C° 0 mm 1 mps 692 mmHg 38%
    10:00 +16°C° 0 mm 1 mps 693 mmHg 30%
    11:00 +18°C° 0 mm 1 mps 693 mmHg 29%
    12:00 +19°C° 0 mm 1 mps 692 mmHg 28%
    13:00 +20°C° 0 mm 1 mps 692 mmHg 27%
    14:00 +19°C° 0 mm 1 mps 692 mmHg 34%
    15:00 +18°C° 0 mm 1 mps 692 mmHg 42%
    16:00 +18°C° 0 mm 1 mps 691 mmHg 50%
    17:00 +14°C° 0 mm 1 mps 691 mmHg 57%
    18:00 +12°C° 0 mm 1 mps 690 mmHg 64%
    19:00 +9°C° 0 mm 1 mps 690 mmHg 71%
    20:00 +9°C° 0 mm 1 mps 690 mmHg 68%
    21:00 +9°C° 0 mm 1 mps 690 mmHg 64%
    22:00 +9°C° 0 mm 1 mps 691 mmHg 61%
    23:00 +9°C° 0 mm 1 mps 690 mmHg 58%

    22 October, Monday

    Time Temperature Precipitation Wind Pressure Humidity
    00:00 +9°C° 0 mm 1 mps 690 mmHg 55%
    01:00 +9°C° 0 mm 1 mps 690 mmHg 52%
    02:00 +9°C° 0 mm 1 mps 690 mmHg 51%
    03:00 +9°C° 0 mm 1 mps 690 mmHg 51%
    04:00 +9°C° 0 mm 1 mps 690 mmHg 50%
    05:00 +9°C° 0 mm 1 mps 690 mmHg 51%
    06:00 +9°C° 0 mm 1 mps 690 mmHg 52%
    07:00 +9°C° 0 mm 1 mps 690 mmHg 52%
    08:00 +11°C° 0 mm 1 mps 690 mmHg 48%
    09:00 +14°C° 0 mm 2 mps 691 mmHg 44%
    10:00 +17°C° 0 mm 2 mps 691 mmHg 40%
    11:00 +17°C° 0 mm 2 mps 691 mmHg 40%
    12:00 +18°C° 0 mm 2 mps 691 mmHg 40%
    13:00 +18°C° 0 mm 2 mps 690 mmHg 40%
    14:00 +17°C° 0 mm 2 mps 690 mmHg 46%
    15:00 +17°C° 0 mm 2 mps 690 mmHg 52%
    16:00 +16°C° 0 mm 2 mps 689 mmHg 58%
    17:00 +13°C° 0 mm 2 mps 689 mmHg 68%
    18:00 +11°C° 0 mm 1 mps 689 mmHg 79%
    19:00 +9°C° 0 mm 1 mps 689 mmHg 89%
    20:00 +8°C° 0 mm 1 mps 689 mmHg 90%
    21:00 +8°C° 0 mm 1 mps 689 mmHg 91%
    22:00 +8°C° 0 mm 1 mps 690 mmHg 92%
    23:00 +7°C° 0 mm 1 mps 689 mmHg 91%

    23 October, Tuesday

    Time Temperature Precipitation Wind Pressure Humidity
    00:00 +7°C° 0 mm 1 mps 689 mmHg 90%
    01:00 +7°C° 0 mm 1 mps 689 mmHg 89%
    02:00 +6°C° 0 mm 1 mps 688 mmHg 88%
    03:00 +6°C° 0 mm 1 mps 688 mmHg 88%
    04:00 +6°C° 0 mm 1 mps 688 mmHg 87%
    05:00 +6°C° 0 mm 1 mps 687 mmHg 86%
    06:00 +6°C° 0 mm 1 mps 687 mmHg 86%
    07:00 +6°C° 0 mm 1 mps 687 mmHg 85%
    08:00 +8°C° 0 mm 1 mps 687 mmHg 79%
    09:00 +8°C° 0 mm 2 mps 686 mmHg 73%
    10:00 +10°C° 0 mm 2 mps 686 mmHg 67%
    11:00 +10°C° 0.3 mm 2 mps 686 mmHg 71%
    12:00 +9°C° 0.3 mm 2 mps 685 mmHg 75%
    13:00 +9°C° 0.3 mm 2 mps 685 mmHg 80%
    14:00 +8°C° 1.3 mm 2 mps 684 mmHg 83%
    15:00 +7°C° 1.3 mm 2 mps 684 mmHg 87%
    16:00 +5°C° 1.3 mm 3 mps 683 mmHg 91%
    17:00 +5°C° 0.5 mm 3 mps 684 mmHg 92%
    18:00 +4°C° 0.5 mm 3 mps 684 mmHg 93%
    19:00 +4°C° 0.5 mm 2 mps 684 mmHg 94%
    20:00 +4°C° 0.6 mm 2 mps 684 mmHg 94%
    21:00 +4°C° 0.6 mm 2 mps 684 mmHg 94%
    22:00 +3°C° 0.6 mm 2 mps 683 mmHg 94%
    23:00 +3°C° 0.6 mm 2 mps 683 mmHg 94%
    Show more